TimeCDT,TemperatureF,Dew PointF,Humidity,Sea Level PressureIn,VisibilityMPH,Wind Direction,Wind SpeedMPH,Gust SpeedMPH,PrecipitationIn,Events,Conditions,WindDirDegrees,DateUTC
12:23 AM,60.8,60.8,100,30.04,9.0,Calm,Calm,-,N/A,,Overcast,0,2013-07-03 05:23:00
12:34 AM,62.6,60.8,94,30.04,8.0,NE,4.6,-,N/A,,Overcast,50,2013-07-03 05:34:00
12:45 AM,62.6,60.8,94,30.04,8.0,NNE,3.5,-,N/A,,Overcast,20,2013-07-03 05:45:00
12:53 AM,62.1,60.1,93,30.04,6.0,North,3.5,-,0.00,Rain,Light Rain,10,2013-07-03 05:53:00
1:53 AM,61.0,60.1,97,30.03,4.0,North,3.5,-,0.01,Rain,Light Rain,350,2013-07-03 06:53:00
2:05 AM,62.6,60.8,94,30.02,2.5,Calm,Calm,-,0.00,Rain,Light Rain,0,2013-07-03 07:05:00
2:32 AM,60.8,60.8,100,30.02,3.0,Calm,Calm,-,N/A,Rain,Light Rain,0,2013-07-03 07:32:00
2:42 AM,62.6,60.8,94,30.01,2.5,North,3.5,-,N/A,Rain,Rain,360,2013-07-03 07:42:00
2:53 AM,62.1,61.0,96,30.01,3.0,NW,3.5,-,N/A,Rain,Light Rain,310,2013-07-03 07:53:00
3:00 AM,62.6,60.8,94,30.01,3.0,Calm,Calm,-,N/A,Rain,Light Rain,0,2013-07-03 08:00:00
3:13 AM,62.6,60.8,94,30.01,2.0,NNE,3.5,-,N/A,Rain,Rain,30,2013-07-03 08:13:00
3:21 AM,62.6,60.8,94,30.01,1.8,North,3.5,-,N/A,Rain,Rain,360,2013-07-03 08:21:00
3:29 AM,62.6,60.8,94,30.01,2.0,Calm,Calm,-,N/A,Rain,Rain,0,2013-07-03 08:29:00
3:46 AM,62.6,60.8,94,30.01,3.0,NNE,4.6,-,N/A,Rain,Light Rain,30,2013-07-03 08:46:00
3:53 AM,62.1,61.0,96,30.01,4.0,NNE,3.5,-,N/A,Rain,Light Rain,20,2013-07-03 08:53:00
4:08 AM,62.6,60.8,94,30.01,3.0,Calm,Calm,-,0.00,,Overcast,0,2013-07-03 09:08:00
4:13 AM,62.6,60.8,94,30.01,3.0,Calm,Calm,-,0.00,,Overcast,0,2013-07-03 09:13:00
4:53 AM,63.0,61.0,93,30.02,5.0,Calm,Calm,-,0.00,,Overcast,0,2013-07-03 09:53:00
5:53 AM,63.0,62.1,97,30.04,2.5,Calm,Calm,-,0.01,,Overcast,0,2013-07-03 10:53:00
6:29 AM,62.6,62.6,100,30.04,1.5,Calm,Calm,-,N/A,,Overcast,0,2013-07-03 11:29:00
6:42 AM,62.6,62.6,100,30.04,2.0,Calm,Calm,-,N/A,,Overcast,0,2013-07-03 11:42:00
6:53 AM,64.0,62.1,93,30.04,2.0,Calm,Calm,-,N/A,,Overcast,0,2013-07-03 11:53:00
7:04 AM,64.4,62.6,94,30.05,1.5,Calm,Calm,-,N/A,,Overcast,0,2013-07-03 12:04:00
7:41 AM,64.4,62.6,94,30.06,2.5,Calm,Calm,-,N/A,,Overcast,0,2013-07-03 12:41:00
7:53 AM,64.0,63.0,96,30.06,3.0,Calm,Calm,-,N/A,,Overcast,0,2013-07-03 12:53:00
8:15 AM,64.4,62.6,94,30.07,2.0,Calm,Calm,-,N/A,,Overcast,0,2013-07-03 13:15:00
8:24 AM,64.4,62.6,94,30.07,1.8,SSE,3.5,-,N/A,,Overcast,160,2013-07-03 13:24:00
8:39 AM,64.4,62.6,94,30.08,2.5,Variable,3.5,-,N/A,,Overcast,0,2013-07-03 13:39:00
8:53 AM,64.9,63.0,93,30.07,2.5,Calm,Calm,-,N/A,,Overcast,0,2013-07-03 13:53:00
9:04 AM,64.4,62.6,94,30.08,4.0,South,4.6,-,N/A,,Overcast,180,2013-07-03 14:04:00
9:25 AM,66.2,62.6,88,30.07,10.0,South,6.9,-,N/A,,Overcast,170,2013-07-03 14:25:00
9:53 AM,66.9,63.0,87,30.07,10.0,South,8.1,-,N/A,,Overcast,180,2013-07-03 14:53:00
10:08 AM,68.0,62.6,83,30.08,10.0,South,5.8,-,N/A,,Overcast,190,2013-07-03 15:08:00
10:43 AM,68.0,62.6,83,30.08,9.0,Calm,Calm,-,N/A,,Overcast,0,2013-07-03 15:43:00
10:53 AM,69.1,63.0,81,30.08,9.0,South,5.8,-,N/A,,Overcast,190,2013-07-03 15:53:00
11:16 AM,69.8,62.6,78,30.08,10.0,Variable,4.6,-,N/A,,Overcast,0,2013-07-03 16:16:00
11:24 AM,69.8,62.6,78,30.08,10.0,SSE,4.6,-,N/A,,Overcast,160,2013-07-03 16:24:00
11:53 AM,71.1,64.0,78,30.07,10.0,South,5.8,-,N/A,,Overcast,170,2013-07-03 16:53:00
12:22 PM,71.6,64.4,78,30.07,10.0,South,6.9,-,N/A,,Overcast,180,2013-07-03 17:22:00
12:53 PM,70.0,64.0,81,30.06,7.0,SW,5.8,-,N/A,,Overcast,220,2013-07-03 17:53:00
1:53 PM,66.9,64.0,90,30.07,3.0,South,8.1,-,0.01,,Overcast,190,2013-07-03 18:53:00
1:55 PM,66.2,64.4,94,30.07,2.5,SSW,5.8,-,N/A,,Overcast,200,2013-07-03 18:55:00
2:02 PM,66.2,64.4,94,30.07,3.0,Calm,Calm,-,N/A,,Overcast,0,2013-07-03 19:02:00
2:24 PM,68.0,64.4,88,30.07,6.0,South,6.9,-,N/A,,Overcast,190,2013-07-03 19:24:00
2:53 PM,71.1,66.0,84,30.06,10.0,South,6.9,-,N/A,,Overcast,180,2013-07-03 19:53:00
3:18 PM,71.6,64.4,78,30.06,10.0,South,6.9,-,N/A,,Overcast,180,2013-07-03 20:18:00
3:53 PM,71.1,64.0,78,30.05,10.0,Variable,4.6,-,N/A,,Overcast,0,2013-07-03 20:53:00
4:08 PM,71.6,64.4,78,30.06,10.0,WNW,4.6,-,N/A,,Overcast,290,2013-07-03 21:08:00
4:24 PM,73.4,64.4,73,30.06,10.0,Calm,Calm,-,N/A,,Mostly Cloudy,0,2013-07-03 21:24:00
4:51 PM,71.6,64.4,78,30.06,1.8,South,9.2,-,0.10,Rain,Light Rain,180,2013-07-03 21:51:00
4:53 PM,70.0,64.9,84,30.05,1.5,SSW,6.9,-,0.11,Rain,Rain,200,2013-07-03 21:53:00
5:01 PM,69.8,66.2,88,30.05,4.0,Calm,Calm,-,0.00,Rain,Light Rain,0,2013-07-03 22:01:00
5:53 PM,73.9,64.0,71,30.04,10.0,WSW,10.4,-,0.00,,Mostly Cloudy,240,2013-07-03 22:53:00
6:53 PM,72.0,63.0,73,30.05,10.0,SW,6.9,-,N/A,,Overcast,230,2013-07-03 23:53:00
7:53 PM,70.0,62.1,76,30.06,10.0,WSW,6.9,-,N/A,,Partly Cloudy,250,2013-07-04 00:53:00
8:53 PM,66.9,62.1,84,30.06,10.0,SSW,3.5,-,N/A,,Clear,200,2013-07-04 01:53:00
9:53 PM,64.0,62.1,93,30.08,9.0,Calm,Calm,-,N/A,,Clear,0,2013-07-04 02:53:00
10:53 PM,64.0,61.0,90,30.09,8.0,Calm,Calm,-,N/A,,Clear,0,2013-07-04 03:53:00
11:53 PM,62.1,60.1,93,30.09,6.0,Calm,Calm,-,N/A,,Clear,0,2013-07-04 04:53:00